Location: Castillon
(43.0896°N, 0.2156°E)
Time: 19:26:32
(UTC+00:00)

Cosmos 1980 Rocket - Pass Details

Date: 16 June 2021
Orbit: 830 x 848 km, 71.0° (Epoch: 23 July)

Event Time Altitude Azimuth Distance (km) Brightness Sun altitude
Rises 20:16:43 0° 221° (SW) 3,381 5.3 -6.1°
Reaches altitude 10° 20:19:15 10° 227° (SW) 2,448 4.7 -6.4°
Maximum altitude 20:24:39 47° 300° (WNW) 1,100 3.4 -7.2°
Drops below altitude 10° 20:30:03 10° 14° (NNE) 2,451 5.0 -7.9°
Sets 20:32:36 0° 21° (NNE) 3,387 5.7 -8.2°
